QPF
0.00 0.00 0.00 0.00 0.00 0.00 0.00 0.00 0.00 0.00 0.00 0.00 0.00 0.00 0.00 0.00 0.01 0.01 0.01 0.03 0.04 0.07 0.11 0.15 0.17 0.23 0.26 0.34 0.37 0.31 0.28 0.29 0.20 0.13 0.10 0.09 0.07 0.05 0.04 0.03 0.02 0.02 0.02 0.01
0.00 0.00 0.00 0.00 0.00 0.00 0.00 0.00 0.00 0.00 0.00 0.00 0.01 0.01 0.01 0.01 0.01 0.01 0.02 0.03 0.05 0.08 0.12 0.14 0.18 0.24 0.26 0.27 0.35 0.34 0.32 0.28 0.23 0.15 0.10 0.10 0.08 0.06 0.06 0.04 0.02 0.01 0.01 0.01
0.00 0.00 0.00 0.00 0.00 0.00 0.00 0.00 0.00 0.00 0.00 0.00 0.01 0.01 0.01 0.02 0.02 0.02 0.02 0.02 0.03 0.06 0.10 0.12 0.14 0.20 0.25 0.22 0.27 0.28 0.32 0.27 0.22 0.18 0.13 0.11 0.10 0.08 0.05 0.04 0.03 0.02 0.01 0.01
0.00 0.00 0.00 0.00 0.00 0.00 0.00 0.00 0.00 0.00 0.00 0.01 0.01 0.01 0.02 0.03 0.02 0.01 0.01 0.01 0.02 0.04 0.08 0.10 0.10 0.11 0.18 0.18 0.21 0.23 0.26 0.23 0.18 0.15 0.10 0.06 0.06 0.04 0.03 0.03 0.02 0.02 0.01 0.01
0.00 0.00 0.00 0.00 0.00 0.00 0.00 0.00 0.00 0.00 0.00 0.00 0.00 0.00 0.01 0.02 0.01 0.01 0.01 0.01 0.02 0.03 0.05 0.07 0.08 0.07 0.08 0.13 0.16 0.20 0.21 0.20 0.14 0.11 0.09 0.07 0.05 0.03 0.04 0.03 0.02 0.01 0.01 0.01
0.00 0.00 0.00 0.00 0.00 0.00 0.00 0.00 0.00 0.00 0.00 0.00 0.00 0.00 0.00 0.01 0.01 0.01 0.01 0.01 0.01 0.02 0.03 0.06 0.08 0.06 0.08 0.11 0.11 0.17 0.18 0.14 0.12 0.08 0.06 0.06 0.05 0.04 0.03 0.02 0.02 0.02 0.02 0.01
0.00 0.00 0.00 0.00 0.00 0.00 0.00 0.00 0.00 0.00 0.00 0.00 0.00 0.00 0.00 0.00 0.00 0.00 0.00 0.01 0.01 0.01 0.02 0.05 0.09 0.07 0.08 0.11 0.09 0.12 0.13 0.09 0.09 0.07 0.05 0.05 0.05 0.04 0.02 0.01 0.01 0.01 0.01 0.00
0.00 0.00 0.00 0.00 0.00 0.00 0.00 0.00 0.01 0.01 0.00 0.00 0.00 0.00 0.00 0.01 0.00 0.01 0.01 0.01 0.01 0.02 0.02 0.03 0.05 0.05 0.10 0.11 0.09 0.09 0.09 0.07 0.06 0.05 0.05 0.05 0.05 0.04 0.02 0.01 0.01 0.01 0.00 0.00
0.00 0.00 0.00 0.00 0.00 0.00 0.00 0.00 0.01 0.01 0.01 0.00 0.00 0.00 0.00 0.00 0.00 0.00 0.00 0.04 0.05 0.02 0.02 0.02 0.03 0.03 0.05 0.06 0.05 0.06 0.05 0.05 0.04 0.04 0.04 0.04 0.04 0.04 0.02 0.01 0.01 0.01 0.01 0.00
0.00 0.00 0.00 0.00 0.00 0.00 0.00 0.00 0.01 0.02 0.02 0.01 0.01 0.01 0.00 0.00 0.00 0.00 0.00 0.01 0.02 0.02 0.01 0.01 0.02 0.02 0.03 0.03 0.03 0.04 0.03 0.04 0.04 0.04 0.04 0.04 0.04 0.03 0.01 0.01 0.01 0.01 0.01 0.00
0.00 0.00 0.00 0.00 0.00 0.00 0.00 0.00 0.01 0.01 0.02 0.02 0.01 0.01 0.00 0.00 0.00 0.00 0.00 0.00 0.01 0.01 0.01 0.01 0.02 0.01 0.02 0.02 0.03 0.03 0.03 0.04 0.04 0.03 0.03 0.03 0.03 0.02 0.01 0.01 0.01 0.00 0.00 0.00
0.00 0.00 0.00 0.00 0.00 0.00 0.00 0.00 0.01 0.01 0.01 0.01 0.01 0.00 0.00 0.00 0.00 0.00 0.00 0.00 0.00 0.00 0.01 0.01 0.01 0.01 0.01 0.02 0.02 0.02 0.03 0.03 0.03 0.03 0.04 0.03 0.03 0.02 0.01 0.01 0.00 0.00 0.00 0.00
0.00 0.00 0.00 0.00 0.00 0.00 0.00 0.00 0.01 0.01 0.01 0.01 0.01 0.00 0.00 0.00 0.00 0.00 0.00 0.00 0.00 0.00 0.01 0.01 0.01 0.01 0.01 0.02 0.02 0.02 0.03 0.03 0.04 0.04 0.04 0.04 0.03 0.02 0.01 0.01 0.00 0.00 0.00 0.00
0.00 0.00 0.00 0.00 0.00 0.00 0.00 0.00 0.01 0.01 0.01 0.00 0.00 0.00 0.01 0.01 0.01 0.00 0.00 0.00 0.01 0.00 0.01 0.01 0.01 0.00 0.01 0.02 0.02 0.02 0.02 0.03 0.04 0.04 0.04 0.03 0.03 0.02 0.01 0.01 0.00 0.00 0.00 0.00
0.01 0.01 0.00 0.01 0.00 0.00 0.00 0.01 0.01 0.01 0.01 0.00 0.00 0.00 0.00 0.00 0.00 0.00 0.00 0.00 0.01 0.01 0.01 0.01 0.01 0.01 0.01 0.01 0.01 0.02 0.02 0.02 0.03 0.03 0.04 0.03 0.02 0.02 0.02 0.01 0.00 0.00 0.00 0.00
0.01 0.01 0.01 0.01 0.01 0.01 0.01 0.01 0.01 0.01 0.01 0.01 0.00 0.00 0.00 0.00 0.00 0.00 0.00 0.00 0.00 0.00 0.01 0.01 0.01 0.01 0.01 0.01 0.01 0.02 0.02 0.02 0.02 0.02 0.02 0.02 0.02 0.02 0.01 0.01 0.01 0.01 0.00 0.00
0.01 0.01 0.01 0.01 0.01 0.01 0.01 0.01 0.01 0.01 0.01 0.01 0.01 0.00 0.01 0.01 0.01 0.01 0.01 0.00 0.01 0.01 0.00 0.00 0.01 0.01 0.00 0.01 0.01 0.01 0.01 0.02 0.02 0.02 0.02 0.02 0.02 0.01 0.01 0.01 0.00 0.00 0.01 0.00
0.01 0.02 0.02 0.02 0.02 0.01 0.01 0.03 0.03 0.02 0.02 0.02 0.02 0.01 0.01 0.01 0.01 0.01 0.01 0.01 0.01 0.01 0.01 0.01 0.01 0.01 0.01 0.01 0.01 0.01 0.02 0.02 0.03 0.03 0.02 0.02 0.02 0.02 0.01 0.01 0.01 0.01 0.00 0.00
0.01 0.03 0.04 0.03 0.03 0.02 0.04 0.05 0.05 0.04 0.03 0.02 0.03 0.03 0.02 0.01 0.01 0.01 0.01 0.02 0.01 0.01 0.01 0.01 0.01 0.01 0.01 0.01 0.02 0.02 0.02 0.02 0.02 0.02 0.02 0.02 0.02 0.01 0.01 0.01 0.01 0.01 0.01 0.01
0.02 0.03 0.05 0.04 0.03 0.03 0.05 0.06 0.05 0.04 0.03 0.03 0.03 0.03 0.03 0.03 0.04 0.02 0.02 0.01 0.01 0.01 0.01 0.01 0.01 0.01 0.02 0.02 0.02 0.03 0.03 0.03 0.02 0.02 0.02 0.02 0.02 0.02 0.01 0.01 0.01 0.01 0.02 0.02
0.05 0.05 0.04 0.04 0.03 0.04 0.05 0.05 0.05 0.05 0.04 0.03 0.04 0.04 0.03 0.03 0.04 0.04 0.03 0.02 0.01 0.01 0.01 0.01 0.01 0.01 0.02 0.02 0.03 0.04 0.04 0.04 0.05 0.06 0.05 0.04 0.03 0.02 0.02 0.02 0.02 0.02 0.03 0.05
0.05 0.06 0.05 0.04 0.03 0.05 0.06 0.06 0.06 0.05 0.04 0.03 0.03 0.04 0.03 0.03 0.03 0.02 0.03 0.03 0.03 0.02 0.02 0.02 0.01 0.02 0.02 0.03 0.05 0.07 0.07 0.08 0.09 0.11 0.09 0.08 0.07 0.07 0.05 0.04 0.04 0.06 0.07 0.08
0.05 0.05 0.05 0.05 0.05 0.05 0.07 0.08 0.06 0.04 0.03 0.03 0.04 0.04 0.04 0.04 0.04 0.04 0.04 0.03 0.03 0.02 0.02 0.02 0.02 0.03 0.03 0.04 0.05 0.07 0.09 0.10 0.11 0.14 0.16 0.16 0.16 0.17 0.12 0.09 0.07 0.07 0.06 0.04
0.03 0.03 0.03 0.05 0.06 0.07 0.07 0.07 0.06 0.05 0.03 0.03 0.04 0.06 0.07 0.07 0.06 0.06 0.06 0.05 0.03 0.02 0.01 0.01 0.01 0.02 0.03 0.04 0.07 0.07 0.09 0.11 0.10 0.09 0.11 0.15 0.18 0.17 0.15 0.12 0.09 0.07 0.06 0.05
0.03 0.04 0.05 0.07 0.08 0.08 0.08 0.07 0.06 0.04 0.02 0.02 0.03 0.05 0.06 0.06 0.06 0.07 0.07 0.06 0.04 0.02 0.01 0.01 0.02 0.03 0.03 0.03 0.03 0.04 0.05 0.05 0.07 0.09 0.11 0.16 0.18 0.19 0.18 0.13 0.10 0.10 0.10 0.09
0.03 0.05 0.06 0.07 0.06 0.06 0.08 0.08 0.07 0.04 0.04 0.05 0.06 0.08 0.09 0.08 0.07 0.07 0.07 0.07 0.06 0.04 0.03 0.02 0.03 0.03 0.03 0.02 0.02 0.03 0.04 0.05 0.08 0.10 0.13 0.16 0.16 0.16 0.16 0.14 0.14 0.14 0.12 0.13
MSLP
1008.29 1009.06 1009.60 1009.91 1010.03 1010.00 1009.88 1009.75 1009.65 1009.61 1009.61 1009.66 1009.73 1009.79 1009.83 1009.83 1009.81 1009.76 1009.69 1009.62 1009.55 1009.49 1009.45 1009.44 1009.47 1009.56 1009.73 1010.00 1010.38 1010.87 1011.47 1012.14 1012.86 1013.58 1014.27 1014.90 1015.45 1015.90 1016.28 1016.59 1016.87 1017.13 1017.39 1017.66
1008.63 1009.24 1009.63 1009.82 1009.87 1009.84 1009.80 1009.81 1009.87 1009.99 1010.12 1010.24 1010.32 1010.33 1010.26 1010.14 1009.98 1009.83 1009.69 1009.60 1009.56 1009.55 1009.57 1009.61 1009.67 1009.76 1009.90 1010.12 1010.45 1010.90 1011.47 1012.15 1012.90 1013.67 1014.41 1015.09 1015.67 1016.15 1016.53 1016.83 1017.09 1017.34 1017.60 1017.87
1008.71 1009.15 1009.38 1009.45 1009.46 1009.47 1009.54 1009.71 1009.97 1010.28 1010.57 1010.78 1010.88 1010.85 1010.69 1010.45 1010.17 1009.92 1009.74 1009.64 1009.64 1009.70 1009.80 1009.90 1010.01 1010.12 1010.24 1010.42 1010.69 1011.09 1011.62 1012.28 1013.02 1013.81 1014.59 1015.31 1015.92 1016.42 1016.80 1017.11 1017.36 1017.60 1017.85 1018.13
1008.52 1008.79 1008.88 1008.87 1008.86 1008.94 1009.16 1009.53 1010.01 1010.52 1010.97 1011.29 1011.42 1011.35 1011.11 1010.75 1010.37 1010.03 1009.81 1009.72 1009.76 1009.89 1010.09 1010.29 1010.46 1010.60 1010.72 1010.87 1011.09 1011.41 1011.88 1012.49 1013.21 1014.00 1014.78 1015.52 1016.16 1016.67 1017.08 1017.39 1017.64 1017.87 1018.12 1018.39
1008.15 1008.26 1008.24 1008.18 1008.21 1008.40 1008.79 1009.36 1010.06 1010.77 1011.37 1011.78 1011.94 1011.83 1011.50 1011.04 1010.55 1010.13 1009.86 1009.78 1009.87 1010.09 1010.39 1010.69 1010.94 1011.13 1011.27 1011.40 1011.56 1011.82 1012.22 1012.76 1013.43 1014.17 1014.95 1015.68 1016.34 1016.87 1017.29 1017.62 1017.88 1018.11 1018.35 1018.61
1007.68 1007.67 1007.59 1007.54 1007.63 1007.95 1008.52 1009.30 1010.20 1011.07 1011.80 1012.28 1012.43 1012.27 1011.85 1011.28 1010.68 1010.19 1009.87 1009.79 1009.92 1010.23 1010.63 1011.03 1011.38 1011.63 1011.80 1011.92 1012.05 1012.24 1012.56 1013.02 1013.62 1014.32 1015.06 1015.78 1016.43 1016.99 1017.42 1017.76 1018.04 1018.27 1018.51 1018.75
1007.21 1007.14 1007.05 1007.05 1007.25 1007.72 1008.46 1009.41 1010.46 1011.46 1012.26 1012.75 1012.88 1012.64 1012.12 1011.43 1010.73 1010.15 1009.79 1009.71 1009.88 1010.25 1010.74 1011.25 1011.69 1012.02 1012.24 1012.37 1012.48 1012.62 1012.87 1013.25 1013.78 1014.41 1015.10 1015.80 1016.45 1017.01 1017.46 1017.82 1018.11 1018.35 1018.58 1018.81
1006.81 1006.74 1006.69 1006.79 1007.11 1007.72 1008.60 1009.68 1010.83 1011.88 1012.69 1013.15 1013.21 1012.88 1012.25 1011.45 1010.65 1010.00 1009.60 1009.51 1009.71 1010.14 1010.71 1011.31 1011.85 1012.26 1012.53 1012.69 1012.80 1012.91 1013.11 1013.43 1013.88 1014.45 1015.09 1015.76 1016.39 1016.95 1017.42 1017.79 1018.09 1018.34 1018.57 1018.78
1006.50 1006.49 1006.54 1006.75 1007.20 1007.93 1008.91 1010.05 1011.22 1012.26 1013.01 1013.39 1013.35 1012.92 1012.19 1011.30 1010.43 1009.72 1009.29 1009.19 1009.42 1009.90 1010.53 1011.21 1011.83 1012.32 1012.66 1012.87 1012.99 1013.11 1013.28 1013.55 1013.94 1014.45 1015.05 1015.68 1016.30 1016.85 1017.33 1017.71 1018.02 1018.27 1018.49 1018.70
1006.27 1006.36 1006.54 1006.88 1007.45 1008.26 1009.27 1010.40 1011.52 1012.46 1013.12 1013.38 1013.23 1012.70 1011.89 1010.95 1010.04 1009.31 1008.88 1008.79 1009.03 1009.54 1010.23 1010.96 1011.65 1012.21 1012.62 1012.89 1013.06 1013.20 1013.37 1013.62 1013.98 1014.45 1015.00 1015.60 1016.19 1016.74 1017.21 1017.60 1017.91 1018.17 1018.38 1018.58
1006.08 1006.31 1006.62 1007.08 1007.72 1008.56 1009.55 1010.60 1011.59 1012.39 1012.90 1013.03 1012.78 1012.18 1011.34 1010.39 1009.49 1008.79 1008.38 1008.32 1008.58 1009.12 1009.83 1010.60 1011.34 1011.97 1012.45 1012.78 1013.01 1013.19 1013.39 1013.65 1014.00 1014.44 1014.97 1015.53 1016.10 1016.63 1017.09 1017.48 1017.79 1018.04 1018.25 1018.45
1005.90 1006.27 1006.71 1007.26 1007.94 1008.75 1009.65 1010.55 1011.37 1011.99 1012.33 1012.34 1012.00 1011.37 1010.55 1009.65 1008.82 1008.19 1007.84 1007.81 1008.10 1008.64 1009.36 1010.15 1010.92 1011.59 1012.13 1012.54 1012.84 1013.09 1013.34 1013.62 1013.98 1014.42 1014.93 1015.47 1016.01 1016.52 1016.97 1017.35 1017.65 1017.90 1018.11 1018.29
1005.75 1006.25 1006.78 1007.38 1008.05 1008.77 1009.52 1010.24 1010.85 1011.27 1011.45 1011.34 1010.95 1010.33 1009.57 1008.77 1008.05 1007.52 1007.25 1007.27 1007.58 1008.13 1008.83 1009.62 1010.39 1011.09 1011.68 1012.16 1012.54 1012.87 1013.18 1013.52 1013.91 1014.36 1014.85 1015.37 1015.89 1016.38 1016.81 1017.18 1017.48 1017.72 1017.93 1018.11
1005.67 1006.26 1006.85 1007.45 1008.05 1008.65 1009.22 1009.72 1010.10 1010.32 1010.34 1010.13 1009.72 1009.15 1008.48 1007.80 1007.22 1006.80 1006.62 1006.69 1007.01 1007.54 1008.21 1008.97 1009.73 1010.44 1011.07 1011.61 1012.08 1012.50 1012.89 1013.30 1013.73 1014.20 1014.69 1015.20 1015.70 1016.16 1016.58 1016.94 1017.24 1017.49 1017.69 1017.88
1005.72 1006.37 1006.97 1007.52 1008.02 1008.46 1008.82 1009.09 1009.25 1009.27 1009.14 1008.86 1008.44 1007.92 1007.35 1006.81 1006.35 1006.05 1005.94 1006.04 1006.35 1006.84 1007.46 1008.17 1008.90 1009.61 1010.28 1010.88 1011.44 1011.95 1012.43 1012.91 1013.40 1013.90 1014.40 1014.90 1015.39 1015.84 1016.24 1016.60 1016.90 1017.16 1017.38 1017.58
1005.98 1006.63 1007.19 1007.66 1008.02 1008.28 1008.43 1008.48 1008.42 1008.26 1008.00 1007.65 1007.22 1006.75 1006.27 1005.83 1005.48 1005.25 1005.18 1005.28 1005.56 1005.99 1006.54 1007.19 1007.88 1008.59 1009.28 1009.95 1010.59 1011.20 1011.78 1012.34 1012.89 1013.42 1013.94 1014.45 1014.93 1015.37 1015.78 1016.14 1016.46 1016.74 1016.98 1017.21
1006.46 1007.07 1007.55 1007.90 1008.11 1008.18 1008.13 1007.97 1007.72 1007.40 1007.02 1006.60 1006.16 1005.71 1005.28 1004.90 1004.60 1004.41 1004.34 1004.41 1004.62 1004.97 1005.45 1006.03 1006.68 1007.39 1008.11 1008.84 1009.56 1010.27 1010.94 1011.58 1012.19 1012.77 1013.32 1013.84 1014.32 1014.77 1015.18 1015.56 1015.91 1016.22 1016.50 1016.76
1007.14 1007.65 1008.03 1008.24 1008.29 1008.19 1007.95 1007.61 1007.20 1006.75 1006.27 1005.78 1005.30 1004.84 1004.42 1004.05 1003.75 1003.53 1003.42 1003.42 1003.55 1003.81 1004.21 1004.73 1005.35 1006.05 1006.81 1007.61 1008.41 1009.20 1009.95 1010.67 1011.34 1011.97 1012.54 1013.08 1013.58 1014.04 1014.48 1014.89 1015.27 1015.63 1015.95 1016.25
1007.89 1008.28 1008.52 1008.59 1008.48 1008.23 1007.85 1007.37 1006.84 1006.28 1005.71 1005.16 1004.64 1004.14 1003.69 1003.28 1002.93 1002.65 1002.46 1002.37 1002.41 1002.59 1002.91 1003.38 1003.98 1004.69 1005.49 1006.33 1007.21 1008.07 1008.90 1009.68 1010.40 1011.06 1011.66 1012.22 1012.74 1013.23 1013.69 1014.15 1014.58 1014.99 1015.36 1015.70
1008.56 1008.81 1008.90 1008.82 1008.58 1008.20 1007.71 1007.15 1006.54 1005.91 1005.29 1004.69 1004.12 1003.58 1003.07 1002.60 1002.17 1001.81 1001.53 1001.36 1001.31 1001.42 1001.68 1002.12 1002.70 1003.42 1004.25 1005.14 1006.06 1006.98 1007.86 1008.68 1009.43 1010.11 1010.74 1011.31 1011.85 1012.37 1012.88 1013.38 1013.86 1014.32 1014.75 1015.14
1008.99 1009.08 1009.02 1008.80 1008.45 1007.99 1007.44 1006.83 1006.20 1005.56 1004.92 1004.30 1003.70 1003.12 1002.55 1002.02 1001.52 1001.08 1000.72 1000.47 1000.37 1000.42 1000.65 1001.06 1001.64 1002.37 1003.21 1004.13 1005.07 1006.00 1006.90 1007.73 1008.49 1009.18 1009.81 1010.40 1010.97 1011.52 1012.06 1012.61 1013.14 1013.66 1014.14 1014.56
1009.07 1008.99 1008.78 1008.45 1008.02 1007.51 1006.95 1006.35 1005.74 1005.13 1004.53 1003.93 1003.33 1002.74 1002.14 1001.57 1001.02 1000.53 1000.12 999.83 999.69 999.72 999.93 1000.34 1000.91 1001.64 1002.47 1003.37 1004.30 1005.22 1006.09 1006.89 1007.63 1008.31 1008.93 1009.53 1010.11 1010.68 1011.27 1011.85 1012.43 1012.99 1013.51 1013.97
1008.74 1008.50 1008.16 1007.74 1007.26 1006.74 1006.21 1005.68 1005.15 1004.62 1004.09 1003.55 1003.00 1002.44 1001.86 1001.28 1000.73 1000.23 999.81 999.52 999.37 999.40 999.62 1000.02 1000.58 1001.28 1002.08 1002.93 1003.80 1004.65 1005.46 1006.21 1006.89 1007.53 1008.13 1008.72 1009.30 1009.90 1010.51 1011.13 1011.74 1012.33 1012.87 1013.36
1008.05 1007.67 1007.22 1006.73 1006.24 1005.76 1005.30 1004.86 1004.45 1004.04 1003.63 1003.20 1002.74 1002.25 1001.73 1001.20 1000.68 1000.22 999.83 999.57 999.45 999.50 999.73 1000.12 1000.66 1001.31 1002.04 1002.81 1003.59 1004.33 1005.04 1005.69 1006.30 1006.88 1007.44 1008.00 1008.58 1009.18 1009.81 1010.45 1011.07 1011.68 1012.23 1012.72
1007.10 1006.60 1006.08 1005.57 1005.09 1004.67 1004.31 1004.01 1003.74 1003.48 1003.22 1002.93 1002.59 1002.21 1001.79 1001.35 1000.91 1000.52 1000.21 1000.00 999.94 1000.02 1000.25 1000.63 1001.13 1001.71 1002.34 1003.00 1003.64 1004.25 1004.83 1005.36 1005.88 1006.38 1006.88 1007.42 1007.98 1008.57 1009.20 1009.83 1010.46 1011.05 1011.60 1012.07
1006.05 1005.49 1004.93 1004.43 1004.00 1003.67 1003.42 1003.26 1003.15 1003.05 1002.95 1002.81 1002.62 1002.37 1002.07 1001.75 1001.42 1001.13 1000.91 1000.78 1000.77 1000.89 1001.13 1001.49 1001.92 1002.42 1002.93 1003.45 1003.94 1004.41 1004.84 1005.25 1005.65 1006.07 1006.52 1007.00 1007.54 1008.11 1008.71 1009.33 1009.93 1010.49 1011.01 1011.45
Thickness
5758 5745 5736 5741 5746 5748 5746 5742 5738 5751 5768 5761 5754 5753 5758 5761 5758 5753 5750 5747 5744 5742 5742 5740 5738 5736 5733 5730 5728 5727 5727 5726 5726 5725 5722 5721 5720 5720 5720 5720 5720 5720 5720 5719
5742 5738 5750 5755 5753 5748 5743 5737 5738 5752 5766 5759 5750 5750 5756 5758 5756 5755 5751 5747 5744 5740 5737 5736 5734 5732 5730 5728 5726 5725 5725 5725 5724 5724 5723 5722 5720 5718 5718 5718 5718 5719 5718 5717
5736 5746 5758 5753 5748 5743 5741 5737 5741 5744 5753 5754 5747 5742 5748 5755 5756 5755 5753 5749 5745 5741 5738 5736 5733 5731 5728 5726 5725 5724 5723 5724 5723 5722 5721 5719 5717 5715 5714 5715 5715 5716 5717 5716
5739 5751 5753 5748 5746 5746 5735 5753 5751 5747 5735 5726 5735 5717 5739 5747 5748 5749 5748 5747 5745 5742 5739 5736 5734 5731 5729 5727 5725 5723 5722 5722 5722 5721 5720 5718 5716 5714 5714 5714 5714 5714 5715 5715
5736 5749 5748 5744 5750 5753 5748 5757 5751 5744 5731 5721 5725 5715 5727 5740 5739 5744 5746 5746 5745 5742 5739 5737 5735 5733 5731 5728 5725 5722 5721 5720 5721 5721 5720 5718 5716 5715 5713 5713 5712 5712 5712 5713
5744 5756 5757 5755 5761 5761 5758 5748 5735 5723 5716 5706 5720 5712 5718 5731 5741 5746 5748 5747 5745 5743 5740 5736 5734 5732 5730 5727 5724 5722 5720 5720 5721 5720 5720 5718 5717 5714 5712 5711 5710 5710 5710 5710
5733 5744 5755 5761 5750 5752 5747 5723 5701 5699 5690 5697 5717 5712 5721 5747 5752 5753 5751 5749 5747 5744 5740 5736 5733 5730 5728 5726 5725 5723 5721 5720 5720 5720 5720 5719 5717 5716 5714 5712 5711 5710 5709 5709
5713 5717 5744 5753 5749 5740 5737 5725 5699 5689 5686 5696 5711 5709 5734 5756 5759 5758 5756 5752 5748 5744 5741 5738 5735 5731 5729 5727 5726 5724 5722 5720 5720 5720 5719 5719 5718 5717 5715 5714 5713 5711 5711 5710
5709 5715 5745 5754 5757 5748 5730 5721 5723 5701 5696 5692 5702 5718 5740 5754 5753 5753 5751 5749 5745 5743 5742 5740 5736 5733 5730 5728 5727 5726 5723 5721 5720 5720 5719 5717 5717 5717 5715 5714 5713 5712 5711 5710
5722 5714 5733 5745 5749 5742 5739 5724 5707 5696 5686 5684 5701 5711 5722 5743 5746 5747 5747 5747 5745 5744 5742 5740 5738 5735 5732 5730 5728 5726 5725 5723 5722 5721 5719 5718 5717 5717 5716 5714 5712 5711 5710 5709
5724 5711 5718 5728 5727 5724 5722 5716 5706 5694 5694 5685 5685 5707 5745 5747 5750 5748 5749 5750 5748 5745 5743 5742 5740 5737 5734 5732 5729 5727 5726 5724 5722 5721 5720 5718 5717 5716 5715 5714 5713 5711 5710 5708
5716 5703 5697 5711 5726 5732 5727 5718 5705 5696 5691 5690 5688 5709 5755 5754 5753 5751 5751 5752 5751 5749 5745 5743 5741 5738 5734 5732 5730 5729 5727 5725 5724 5722 5720 5719 5717 5716 5714 5713 5712 5711 5709 5707
5712 5696 5684 5690 5701 5715 5715 5714 5710 5701 5691 5684 5685 5712 5749 5750 5750 5751 5750 5751 5750 5748 5745 5742 5740 5738 5736 5734 5732 5730 5728 5726 5724 5722 5720 5718 5716 5715 5714 5713 5711 5709 5707 5705
5713 5693 5686 5682 5690 5702 5705 5708 5706 5699 5688 5687 5697 5716 5736 5742 5744 5747 5749 5749 5749 5748 5746 5743 5740 5739 5738 5736 5734 5732 5729 5727 5724 5722 5719 5718 5716 5715 5714 5713 5710 5708 5706 5704
5704 5690 5693 5696 5704 5705 5705 5707 5705 5702 5702 5699 5710 5716 5732 5740 5744 5748 5750 5749 5748 5747 5746 5745 5743 5741 5739 5737 5736 5734 5732 5729 5727 5723 5720 5719 5717 5715 5713 5711 5709 5707 5705 5703
5690 5686 5687 5690 5699 5700 5700 5706 5707 5707 5709 5708 5713 5720 5739 5743 5745 5746 5747 5748 5747 5748 5749 5748 5747 5744 5742 5741 5739 5737 5734 5731 5728 5725 5722 5720 5717 5714 5712 5710 5708 5705 5703 5701
5677 5676 5672 5672 5686 5689 5684 5700 5704 5707 5712 5712 5709 5723 5734 5736 5739 5743 5746 5748 5750 5751 5752 5751 5750 5750 5748 5746 5744 5740 5737 5733 5729 5726 5723 5720 5717 5714 5712 5710 5706 5704 5702 5699
5671 5666 5660 5662 5671 5664 5689 5707 5710 5707 5711 5715 5718 5725 5730 5733 5739 5744 5747 5749 5750 5752 5754 5755 5754 5753 5753 5751 5747 5743 5738 5734 5730 5727 5724 5721 5718 5715 5712 5709 5706 5704 5701 5698
5670 5664 5655 5653 5656 5667 5687 5700 5701 5697 5700 5712 5714 5720 5726 5733 5737 5741 5747 5750 5752 5754 5756 5758 5758 5756 5753 5750 5747 5742 5738 5734 5731 5728 5725 5723 5720 5716 5712 5708 5706 5703 5700 5696
5661 5660 5653 5649 5653 5656 5679 5696 5702 5697 5691 5708 5711 5714 5720 5725 5720 5730 5743 5747 5751 5754 5756 5757 5757 5755 5753 5751 5748 5742 5738 5734 5732 5731 5729 5725 5721 5717 5713 5710 5706 5703 5699 5696
5650 5649 5648 5647 5649 5661 5683 5691 5694 5679 5688 5703 5707 5711 5714 5716 5720 5729 5737 5743 5748 5752 5754 5756 5755 5754 5753 5752 5748 5742 5738 5737 5737 5734 5729 5725 5721 5717 5714 5709 5705 5701 5697 5693
5644 5642 5643 5643 5644 5655 5682 5684 5680 5683 5692 5698 5703 5707 5711 5715 5721 5727 5732 5738 5743 5747 5751 5752 5751 5751 5750 5749 5746 5741 5739 5740 5736 5732 5728 5724 5720 5716 5712 5706 5702 5698 5694 5690
5642 5644 5644 5647 5653 5667 5674 5677 5682 5684 5687 5693 5698 5704 5708 5712 5717 5722 5728 5733 5739 5742 5744 5747 5747 5745 5744 5744 5743 5740 5739 5737 5733 5729 5725 5722 5718 5713 5709 5704 5699 5694 5690 5687
5643 5646 5645 5648 5657 5664 5670 5675 5679 5683 5685 5690 5695 5700 5704 5707 5712 5717 5722 5727 5732 5735 5737 5739 5739 5737 5736 5737 5738 5737 5735 5732 5729 5725 5722 5719 5714 5708 5704 5701 5697 5692 5688 5684
5639 5641 5641 5643 5653 5660 5666 5669 5673 5677 5682 5685 5690 5695 5699 5703 5707 5711 5715 5718 5722 5725 5727 5730 5730 5729 5729 5729 5729 5730 5729 5727 5723 5720 5717 5713 5709 5704 5699 5696 5693 5690 5688 5685
5635 5637 5638 5642 5651 5651 5656 5663 5668 5670 5674 5678 5683 5688 5692 5697 5699 5703 5705 5708 5712 5714 5716 5718 5719 5719 5719 5720 5720 5721 5722 5721 5717 5713 5710 5707 5703 5698 5693 5689 5684 5682 5680 5677